GW6929 Weather Reports


time (UTC)temp
F
wind
direction
speed
knots
gust
knots
rain 1hr
in
rain 24hr
in
rain mn
in
humidity
%
barometer
mb
20260502170503 86 341 2.6 7.8 0.00 0.00 0.00 26 1029.0
20260502164004 85 342 2.6 9.6 0.00 0.00 0.00 27 1028.7
20260502163525 84 315 2.6 7.0 0.00 0.00 0.00 28 1029.0
20260502163004 84 322 2.6 7.0 0.00 0.00 0.00 27 1029.0
20260502162504 84 335 3.5 7.8 0.00 0.00 0.00 26 1028.7
20260502162003 83 331 3.5 7.8 0.00 0.00 0.00 27 1029.0
20260502161504 84 326 2.6 6.1 0.00 0.00 0.00 27 1028.7
20260502161003 83 326 2.6 5.2 0.00 0.00 0.00 27 1028.7
20260502160503 83 330 1.7 5.2 0.00 0.00 0.00 27 1028.7
20260502152003 81 341 1.7 5.2 0.00 0.00 0.00 25 1028.3
20260502151524 81 343 1.7 5.2 0.00 0.00 0.00 24 1028.3
20260502151003 80 1 2.6 7.8 0.00 0.00 0.00 23 1028.0
20260502150503 80 343 1.7 7.8 0.00 0.00 0.00 23 1028.3
20260502130507 71 275 1.7 3.5 0.00 0.00 0.00 26 1026.6
20260502123507 70 297 0.9 3.5 0.00 0.00 0.00 27 1026.2
20260502123028 71 261 1.7 3.5 0.00 0.00 0.00 27 1026.2
20260502122507 70 247 0.9 3.5 0.00 0.00 0.00 27 1026.2
20260502122007 70 256 1.7 3.5 0.00 0.00 0.00 27 1026.2
20260502121528 70 236 0.9 3.5 0.00 0.00 0.00 28 1026.2
20260502120507 71 319 1.7 3.5 0.00 0.00 0.00 28 1025.9
20260502115507 70 296 1.7 3.5 0.00 0.00 0.00 27 1026.2
20260502115007 69 258 1.7 5.2 0.00 0.00 0.00 29 1026.2
20260502114507 69 231 1.7 5.2 0.00 0.00 0.00 30 1026.2
20260502113507 69 232 1.7 3.5 0.00 0.00 0.00 30 1026.2
20260502113007 69 219 0.9 3.5 0.00 0.00 0.00 30 1025.9
20260502112507 70 242 0.9 3.5 0.00 0.00 0.00 28 1025.9
20260502112007 70 276 0.9 3.5 0.00 0.00 0.00 29 1025.9
20260502111507 70 353 0.9 2.6 0.00 0.00 0.00 28 1026.2
20260502111007 69 62 0.9 2.6 0.00 0.00 0.00 29 1025.9
20260502110507 69 96 0.9 2.6 0.00 0.00 0.00 29 1025.9
20260502105507 69 342 0.9 2.6 0.00 0.00 0.00 28 1025.9
20260502105007 69 78 1.7 3.5 0.00 0.00 0.00 28 1025.9
20260502104528 70 59 1.7 3.5 0.00 0.00 0.00 28 1025.9
20260502104028 71 24 1.7 3.5 0.00 0.00 0.00 27 1025.9
20260502103506 71 22 1.7 3.5 0.00 0.00 0.00 26 1025.9
20260502103007 72 75 1.7 3.5 0.00 0.00 0.00 25 1025.9
20260502102507 72 173 0.9 3.5 0.00 0.00 0.00 25 1025.5
20260502102006 73 334 0.9 3.5 0.00 0.00 0.00 25 1025.5
20260502101506 73 271 0.9 3.5 0.00 0.00 0.00 24 1025.9
20260502101006 74 243 0.9 3.5 0.00 0.00 0.00 24 1025.5
20260502100506 73 261 0.9 4.3 0.00 0.00 0.00 24 1025.5
20260502091506 75 281 0.9 1.7 0.00 0.00 0.00 24 1025.2
20260502091027 75 286 0.9 1.7 0.00 0.00 0.00 24 1025.5
20260502090527 75 284 0.9 1.7 0.00 0.00 0.00 23 1025.5
20260502071506 70 67 0.9 2.6 0.00 0.00 0.00 34 1024.8
20260502071006 70 58 0.9 2.6 0.00 0.00 0.00 32 1024.8
20260502070506 71 58 0.9 1.7 0.00 0.00 0.00 32 1024.5
20260502070027 71 65 0.9 1.7 0.00 0.00 0.00 29 1024.5
20260502065527 72 82 0.0 1.7 0.00 0.00 0.00 28 1024.5
20260502065027 72 88 0.9 3.5 0.00 0.00 0.00 28 1024.5
20260502064527 72 98 0.9 3.5 0.00 0.00 0.00 28 1024.5
20260502064006 72 98 0.9 3.5 0.00 0.00 0.00 28 1024.5
20260502063506 72 97 0.9 2.6 0.00 0.00 0.00 30 1024.8
20260502063006 72 96 0.9 3.5 0.00 0.00 0.00 29 1024.8
20260502062527 73 100 0.9 3.5 0.00 0.00 0.00 28 1024.5
20260502062027 73 108 1.7 4.3 0.00 0.00 0.00 27 1024.5
20260502061506 74 110 1.7 4.3 0.00 0.00 0.00 27 1024.5
20260502061006 73 117 1.7 3.5 0.00 0.00 0.00 26 1024.8
20260502060506 74 114 0.9 3.5 0.00 0.00 0.00 27 1024.8
20260502060006 74 97 1.7 3.5 0.00 0.00 0.00 29 1024.5
20260502055506 74 105 1.7 4.3 0.00 0.00 0.00 25 1024.5
20260502055006 72 112 1.7 4.3 0.00 0.00 0.00 27 1024.5
20260502054506 70 97 0.9 2.6 0.00 0.00 0.00 31 1024.5
20260502054006 70 74 0.0 1.7 0.00 0.00 0.00 39 1024.5
20260502053527 70 57 0.0 0.9 0.00 0.00 0.00 37 1024.8
20260502053006 70 44 0.0 0.9 0.00 0.00 0.00 37 1024.5
20260502052506 70 119 0.0 1.7 0.00 0.00 0.00 39 1024.1
20260502052006 70 120 0.0 1.7 0.00 0.00 0.00 34 1024.5
20260502051506 71 108 0.0 1.7 0.00 0.00 0.00 36 1024.5
20260502051006 72 107 0.0 1.7 0.00 0.00 0.00 34 1024.5
20260502050505 73 116 0.9 2.6 0.00 0.00 0.00 37 1024.1
20260502050006 74 119 0.9 2.6 0.00 0.00 0.00 31 1024.5
20260502045505 75 120 0.9 2.6 0.00 0.00 0.00 26 1024.5
20260502045026 75 109 0.9 2.6 0.00 0.00 0.00 27 1024.1
20260502044526 75 98 0.9 1.7 0.00 0.00 0.00 26 1024.1
20260502044006 75 104 0.0 1.7 0.00 0.00 0.00 26 1024.1
20260502043505 75 99 0.0 1.7 0.00 0.00 0.00 25 1024.1
20260502043006 75 86 0.0 1.7 0.00 0.00 0.00 23 1023.8
20260502042506 74 98 0.0 0.9 0.00 0.00 0.00 24 1024.1
20260502042026 74 94 0.0 0.9 0.00 0.00 0.00 26 1023.8
20260502041526 74 93 0.0 0.9 0.00 0.00 0.00 27 1023.8
20260502041005 75 81 0.0 0.9 0.00 0.00 0.00 27 1023.8
20260502040505 75 75 0.0 0.9 0.00 0.00 0.00 26 1023.8
20260502040026 76 75 0.0 0.9 0.00 0.00 0.00 28 1023.4
20260502035505 76 64 0.0 0.9 0.00 0.00 0.00 29 1023.4
20260502035005 76 104 0.0 0.9 0.00 0.00 0.00 27 1023.4
20260502034506 76 108 0.0 0.9 0.00 0.00 0.00 28 1023.4
20260502034005 76 103 0.0 0.9 0.00 0.00 0.00 29 1023.4
20260502033505 77 117 0.0 0.9 0.00 0.00 0.00 28 1023.4
20260502033005 77 124 0.0 0.9 0.00 0.00 0.00 31 1023.1
20260502032505 78 0 0.0 0.0 0.00 0.00 0.00 27 1023.4
20260502032005 78 83 0.0 0.9 0.00 0.00 0.00 26 1023.4
20260502031526 79 118 0.0 0.9 0.00 0.00 0.00 26 1023.1
20260502031005 79 153 0.0 0.9 0.00 0.00 0.00 25 1023.1
20260502030505 80 188 0.0 0.9 0.00 0.00 0.00 26 1023.1
20260502030005 81 0 0.0 0.9 0.00 0.00 0.00 26 1023.1
20260502025505 82 76 0.0 0.9 0.00 0.00 0.00 25 1022.7
20260502025005 82 85 0.0 0.9 0.00 0.00 0.00 22 1022.7
20260502024526 82 103 0.0 0.9 0.00 0.00 0.00 21 1022.7
20260502024005 83 87 0.0 1.7 0.00 0.00 0.00 21 1022.7
20260502023505 83 85 0.0 1.7 0.00 0.00 0.00 21 1022.7
20260502023005 84 110 0.0 2.6 0.00 0.00 0.00 21 1022.7
20260502022505 84 117 0.9 2.6 0.00 0.00 0.00 21 1022.7
20260502022005 85 114 0.9 2.6 0.00 0.00 0.00 20 1022.7
20260502021505 85 112 0.0 2.6 0.00 0.00 0.00 19 1022.7
20260502021026 85 122 0.9 2.6 0.00 0.00 0.00 19 1022.7
20260502020505 85 124 0.9 2.6 0.00 0.00 0.00 19 1022.4
20260502020005 86 114 0.9 3.5 0.00 0.00 0.00 19 1022.7
20260502015505 86 106 1.7 5.2 0.00 0.00 0.00 19 1022.4
20260502015005 86 119 1.7 5.2 0.00 0.00 0.00 19 1022.4
20260502014526 86 136 1.7 5.2 0.00 0.00 0.00 21 1022.4
20260502014005 86 132 1.7 5.2 0.00 0.00 0.00 22 1022.4
20260502013505 87 119 1.7 4.3 0.00 0.00 0.00 21 1022.7
20260502013005 87 129 2.6 6.1 0.00 0.00 0.00 21 1022.4
20260502012505 87 132 1.7 6.1 0.00 0.00 0.00 20 1022.4
20260502012005 88 121 0.9 5.2 0.00 0.00 0.00 20 1022.4
20260502011505 89 117 1.7 5.2 0.00 0.00 0.00 18 1022.4
20260502011005 89 105 1.7 4.3 0.00 0.00 0.00 18 1022.4
20260502010505 89 117 1.7 4.3 0.00 0.00 0.00 19 1022.4
20260502010005 90 138 1.7 4.3 0.00 0.00 0.00 20 1022.4
20260502005505 90 134 1.7 4.3 0.00 0.00 0.00 19 1022.4
20260502005005 90 130 1.7 6.1 0.00 0.00 0.00 18 1022.7
20260502004505 90 116 1.7 6.1 0.00 0.00 0.00 19 1022.4
20260502004005 90 125 1.7 4.3 0.00 0.00 0.00 19 1022.4
20260502003505 91 123 1.7 6.1 0.00 0.00 0.00 18 1022.4
20260502003026 91 120 1.7 6.1 0.00 0.00 0.00 18 1022.7
20260502002505 91 132 1.7 4.3 0.00 0.00 0.00 18 1022.7
20260502002005 91 127 1.7 5.2 0.00 0.00 0.00 18 1022.4
20260502001505 91 126 1.7 5.2 0.00 0.00 0.00 18 1022.7
20260502001005 91 135 1.7 5.2 0.00 0.00 0.00 18 1022.7
20260502000505 92 145 1.7 3.5 0.00 0.00 0.00 18 1022.7
20260502000005 92 127 1.7 4.3 0.00 0.00 0.00 17 1022.7
20260501235505 92 120 1.7 4.3 0.00 0.00 0.00 18 1022.7
20260501235005 91 128 1.7 5.2 0.00 0.00 0.00 17 1022.7
20260501234504 91 128 2.6 6.1 0.00 0.00 0.00 18 1022.7
20260501234005 92 130 1.7 6.1 0.00 0.00 0.00 18 1022.7
20260501233504 92 131 1.7 6.1 0.00 0.00 0.00 18 1022.7
20260501233026 92 125 1.7 6.1 0.00 0.00 0.00 17 1022.7
20260501232525 92 92 0.9 4.3 0.00 0.00 0.00 17 1022.7
20260501232004 92 72 0.9 4.3 0.00 0.00 0.00 18 1022.7
20260501231525 92 125 0.9 4.3 0.00 0.00 0.00 17 1023.1
20260501231004 92 135 0.9 5.2 0.00 0.00 0.00 18 1022.7
20260501230525 91 135 1.7 5.2 0.00 0.00 0.00 19 1023.1
20260501230004 91 138 1.7 6.1 0.00 0.00 0.00 18 1022.7
20260501225504 91 124 1.7 7.0 0.00 0.00 0.00 18 1023.1
20260501225025 91 105 0.9 7.0 0.00 0.00 0.00 18 1023.1
20260501224505 91 108 0.9 5.2 0.00 0.00 0.00 18 1023.4
20260501224005 91 130 0.9 5.2 0.00 0.00 0.00 18 1023.4
20260501223505 90 129 0.9 5.2 0.00 0.00 0.00 18 1023.4
20260501223004 90 124 1.7 5.2 0.00 0.00 0.00 19 1023.4
20260501222504 90 126 0.9 5.2 0.00 0.00 0.00 19 1023.4
20260501222005 90 143 1.7 6.1 0.00 0.00 0.00 19 1023.8
20260501221504 90 142 1.7 6.1 0.00 0.00 0.00 18 1023.8
20260501221004 90 136 1.7 5.2 0.00 0.00 0.00 18 1023.8
20260501220504 90 142 1.7 5.2 0.00 0.00 0.00 21 1023.8
20260501220004 91 158 1.7 5.2 0.00 0.00 0.00 18 1024.1
20260501215504 90 157 1.7 6.1 0.00 0.00 0.00 19 1024.1
20260501215004 90 147 1.7 6.1 0.00 0.00 0.00 20 1024.1
20260501214504 90 170 1.7 4.3 0.00 0.00 0.00 21 1024.1
20260501214004 90 314 0.9 3.5 0.00 0.00 0.00 21 1024.1
20260501213525 90 79 1.7 5.2 0.00 0.00 0.00 21 1024.5
20260501213025 89 146 1.7 5.2 0.00 0.00 0.00 23 1024.5
20260501212525 89 120 1.7 4.3 0.00 0.00 0.00 24 1024.8
20260501212004 89 105 1.7 4.3 0.00 0.00 0.00 24 1024.5
20260501211504 89 189 1.7 4.3 0.00 0.00 0.00 24 1024.8
20260501211004 89 185 1.7 4.3 0.00 0.00 0.00 25 1024.5
20260501210525 89 168 1.7 4.3 0.00 0.00 0.00 25 1024.8
20260501210004 88 155 1.7 5.2 0.00 0.00 0.00 24 1024.8
20260501205525 88 186 1.7 5.2 0.00 0.00 0.00 26 1024.8
20260501205004 89 171 0.9 5.2 0.00 0.00 0.00 23 1024.8
20260501204504 89 162 1.7 4.3 0.00 0.00 0.00 24 1025.2
20260501204004 89 229 0.9 4.3 0.00 0.00 0.00 25 1025.2
20260501203504 89 229 0.9 6.1 0.00 0.00 0.00 23 1025.2
20260501203004 88 141 0.9 6.1 0.00 0.00 0.00 24 1025.2
20260501202504 89 117 0.9 6.1 0.00 0.00 0.00 24 1025.5
20260501202004 88 128 1.7 5.2 0.00 0.00 0.00 22 1025.2
20260501201504 87 123 0.9 5.2 0.00 0.00 0.00 24 1025.5
20260501201025 88 200 0.9 4.3 0.00 0.00 0.00 25 1025.5
20260501200504 87 158 0.9 4.3 0.00 0.00 0.00 26 1025.2
20260501200004 88 131 0.9 4.3 0.00 0.00 0.00 24 1025.5
20260501195504 87 102 0.9 4.3 0.00 0.00 0.00 23 1025.5
20260501195004 87 147 0.9 4.3 0.00 0.00 0.00 25 1025.5
20260501194504 88 163 0.9 4.3 0.00 0.00 0.00 24 1025.5
20260501194004 88 36 0.9 3.5 0.00 0.00 0.00 24 1025.9
20260501193504 86 97 1.7 6.1 0.00 0.00 0.00 27 1025.9
20260501193004 85 127 1.7 6.1 0.00 0.00 0.00 26 1025.9
20260501192525 86 163 1.7 4.3 0.00 0.00 0.00 25 1025.9
20260501192025 86 155 1.7 4.3 0.00 0.00 0.00 23 1026.2
20260501191504 87 127 0.9 4.3 0.00 0.00 0.00 24 1026.2
20260501191004 86 158 0.9 4.3 0.00 0.00 0.00 24 1026.2
20260501190504 85 146 0.9 4.3 0.00 0.00 0.00 27 1026.6
20260501190004 86 19 0.9 4.3 0.00 0.00 0.00 27 1026.2
20260501185525 86 356 0.9 4.3 0.00 0.00 0.00 26 1026.2
20260501185004 85 72 0.9 3.5 0.00 0.00 0.00 26 1026.2
20260501184504 85 152 0.9 3.5 0.00 0.00 0.00 26 1026.6
20260501184003 85 106 0.9 3.5 0.00 0.00 0.00 27 1026.9
20260501183504 84 104 1.7 6.1 0.00 0.00 0.00 26 1026.6
20260501183004 84 161 1.7 6.1 0.00 0.00 0.00 27 1026.9
20260501182503 84 170 0.9 5.2 0.00 0.00 0.00 27 1026.9
20260501182004 84 146 0.9 5.2 0.00 0.00 0.00 26 1026.9
20260501181503 84 146 1.7 5.2 0.00 0.00 0.00 26 1026.9
20260501181024 85 96 1.7 5.2 0.00 0.00 0.00 27 1027.3
20260501180503 84 60 0.9 3.5 0.00 0.00 0.00 27 1026.9
20260501180004 84 116 0.9 3.5 0.00 0.00 0.00 27 1027.3
20260501175504 83 110 0.9 3.5 0.00 0.00 0.00 27 1027.3
20260501175003 83 98 0.9 3.5 0.00 0.00 0.00 28 1027.3
20260501174503 83 134 0.9 3.5 0.00 0.00 0.00 28 1027.3
20260501174003 82 249 0.9 4.3 0.00 0.00 0.00 29 1027.3
20260501173504 82 179 0.9 4.3 0.00 0.00 0.00 29 1027.3
20260501173003 81 114 1.7 5.2 0.00 0.00 0.00 29 1027.6
20260501172503 81 40 1.7 5.2 0.00 0.00 0.00 28 1027.3